Location: *
(24.1434°N, 56.8729°E)
Time: 08:57:34
(UTC+00:00)

GEOS 3 Rocket - Pass Details

Date: 09 April 2020
Orbit: 774 x 845 km, 115.0° (Epoch: 29 May)

Event Time Altitude Azimuth Distance (km) Brightness Sun altitude
Exits shadow 16:05:06 43° 83° (E) 1,092 3.8 -21.4°
Maximum altitude 16:05:53 47° 56° (NE) 1,040 3.9 -21.6°
Drops below altitude 10° 16:10:47 10° 344° (NNW) 2,374 6.5 -22.6°
Sets 16:13:10 0° 338° (NNW) 3,318 7.4 -23.1°
